Location: Joplin
(37.0842°N, 94.5131°W)
Time: 23:30:43
(UTC-05:00)

ISS - Visible Passes

Search period start: 24 June 2018 00:00
Search period end: 04 July 2018 00:00
Orbit: 402 x 407 km, 51.6° (Epoch: 25 June)

Date Brightness Start Highest point End Pass type
(mag) Time Alt. Az. Time Alt. Az. Time Alt. Az.
29 Jun -1.2 05:09:50 10° SSE 05:11:38 14° SE 05:13:25 10° E visible
01 Jul -2.7 05:01:00 13° SSW 05:03:33 36° SE 05:06:37 10° ENE visible
02 Jul -1.8 04:10:59 17° SE 04:11:33 18° SE 04:13:52 10° E visible
03 Jul -3.8 04:53:33 21° SW 04:55:37 78° NW 04:58:53 10° NE visible
